Wind_Speed
12 10 10 11 10 9 12 13 13 18 17 15 17 18 20 22 22 22 21 18 15 13 13 12 12 13 13 13 15 17 18 19 20 21 22 21 21 20 20 19 19 18 18 17 17 17 18 18 18 17 17 17 17 17 16 20 23 23 23 25 25 24 24 22 18 17 18 19 17 15 15 15 18 21 24 26 29 31 32 35 37 39 40 40 39
13 12 10 9 8 8 10 12 14 16 14 14 17 19 21 22 21 19 16 12 12 14 15 16 16 16 16 16 17 18 19 19 20 21 22 22 22 21 20 19 19 18 17 17 17 17 17 17 17 17 16 16 17 15 15 19 23 22 22 23 25 25 26 25 20 18 18 18 18 16 15 16 18 21 24 26 28 30 31 32 35 38 40 42 41
13 11 10 9 9 10 11 12 13 12 12 14 17 20 21 20 16 13 12 14 17 20 21 22 22 22 23 22 21 22 22 22 23 23 23 22 22 22 21 20 19 18 17 17 17 17 17 17 17 16 16 16 17 15 15 19 22 22 21 22 25 27 28 27 23 20 19 19 18 17 17 18 20 23 25 27 27 28 29 31 34 38 41 44 42
12 8 7 9 12 14 13 12 11 10 12 14 17 19 18 14 11 12 17 21 24 26 27 29 29 29 30 28 27 27 27 27 28 27 26 25 23 22 21 20 20 19 19 18 17 17 17 17 16 15 15 15 16 16 15 19 22 22 22 22 26 28 28 27 24 22 20 19 19 19 19 20 22 24 25 26 27 27 28 30 34 38 41 45 42
13 7 9 12 14 14 12 10 10 10 12 14 16 15 11 10 13 18 22 26 29 31 31 32 33 34 35 34 33 31 30 30 30 29 29 29 28 26 24 22 21 20 19 19 18 17 17 16 16 15 14 14 16 17 17 20 21 23 24 24 26 28 28 26 25 23 21 20 20 20 21 22 23 24 25 26 26 25 27 29 34 38 40 46 41
11 11 11 10 11 10 9 7 8 9 11 13 12 8 9 15 20 23 26 29 32 33 33 33 34 34 34 34 34 35 34 34 33 32 32 32 31 30 28 27 25 24 23 21 19 18 17 16 16 15 15 16 18 19 20 19 20 23 25 25 26 27 27 26 25 24 23 22 22 22 23 24 25 26 27 27 27 25 26 29 33 37 39 44 42
12 13 8 7 6 6 5 4 6 7 9 10 5 9 15 21 25 27 28 29 30 30 31 31 33 33 33 33 33 34 34 36 36 36 35 35 35 35 34 32 31 29 27 26 24 22 20 19 18 17 16 17 20 21 21 20 21 23 23 24 26 26 26 26 26 26 26 25 25 25 26 27 27 29 30 30 29 26 26 30 33 37 38 42 43
14 9 6 5 5 5 5 4 4 6 6 3 9 16 20 24 27 27 27 27 27 27 28 29 31 32 32 32 32 31 32 33 35 36 36 35 37 38 39 39 37 34 32 31 29 27 25 23 22 21 20 19 20 21 22 22 23 24 23 24 25 26 27 28 28 28 29 28 27 28 28 29 30 31 32 32 30 28 28 30 33 36 37 39 42
9 5 4 4 4 4 5 4 2 2 3 11 18 22 24 25 25 26 25 25 26 27 29 30 31 31 31 31 32 32 32 33 34 36 36 36 37 39 41 42 42 41 39 37 35 32 30 28 26 25 24 22 21 20 22 24 26 27 26 25 26 27 29 30 30 31 30 29 30 30 30 31 32 33 34 33 32 30 29 30 32 34 36 37 39
4 4 5 5 4 4 4 3 3 7 14 21 25 27 27 26 25 24 25 26 27 27 28 29 29 29 30 30 31 33 34 33 34 36 36 37 37 38 40 40 41 43 43 42 40 38 35 33 32 31 29 27 24 22 24 28 31 31 30 28 28 30 30 31 32 32 31 31 32 32 32 32 33 33 34 35 34 32 30 30 32 33 34 35 37
6 6 6 6 6 6 7 7 11 17 23 26 28 27 26 25 25 25 25 25 25 26 26 27 27 27 27 28 30 32 33 34 34 34 34 35 36 36 37 36 36 38 40 41 40 40 39 39 39 38 37 35 32 31 30 33 36 37 35 34 34 33 32 31 31 32 32 33 34 33 34 34 33 33 34 36 36 34 33 31 31 32 32 33 34
8 8 8 8 9 10 11 14 19 24 27 28 27 26 25 24 24 24 24 24 24 24 24 24 24 24 24 26 27 29 31 31 32 33 33 33 33 33 34 34 34 34 35 37 38 39 39 40 40 40 40 39 38 37 36 36 37 38 38 39 39 37 35 33 32 33 34 34 35 35 35 34 33 33 34 36 37 37 36 34 32 31 30 30 31
10 10 10 11 11 13 17 21 26 29 29 28 26 24 24 23 23 23 23 23 23 22 22 22 22 22 23 24 26 27 29 29 30 31 31 30 30 30 31 33 35 35 34 34 36 37 38 38 39 38 38 38 38 38 38 38 37 36 37 39 40 39 38 37 36 35 35 36 36 36 35 35 35 35 35 36 38 39 39 37 34 31 29 28 28
12 13 13 13 14 19 23 27 29 30 28 26 25 24 24 23 23 23 23 23 22 22 22 22 21 22 23 24 25 26 27 27 27 27 27 27 28 29 29 29 32 34 33 33 34 34 35 36 36 36 36 36 36 37 38 38 37 36 37 38 39 40 40 40 39 37 37 37 37 37 37 37 38 38 38 38 38 39 40 39 38 35 31 28 26
16 16 15 16 20 25 28 29 29 29 27 25 25 24 24 24 23 23 23 23 23 23 23 22 22 22 23 23 23 24 24 24 24 25 25 25 25 28 28 28 30 32 30 29 31 31 33 33 33 34 34 35 36 36 36 35 36 36 38 39 40 40 40 41 41 41 40 40 40 40 40 40 40 40 40 40 40 40 41 41 41 39 35 31 28
17 18 19 22 26 29 31 31 30 28 26 25 24 24 24 24 23 24 24 24 24 23 23 23 23 22 22 23 23 24 23 23 23 23 24 24 24 26 28 29 30 31 29 27 28 29 30 30 31 32 32 33 34 34 33 34 35 37 39 40 40 40 41 42 43 44 44 44 44 43 43 43 42 43 43 43 43 42 42 43 43 42 39 36 33
18 20 23 27 30 32 32 30 29 27 26 25 24 24 24 24 24 24 25 25 24 24 23 23 23 22 22 22 22 22 22 23 23 23 24 25 26 27 29 31 31 30 28 28 28 28 29 30 32 32 31 31 32 32 33 34 35 37 38 38 39 39 41 42 43 44 46 47 47 47 46 45 45 45 45 45 45 45 45 45 45 44 42 40 38
21 24 28 31 33 32 31 29 27 26 26 26 25 25 25 25 25 25 25 25 25 24 24 23 23 23 22 22 22 22 22 23 24 24 25 25 26 27 27 27 27 27 27 28 29 28 28 30 31 31 30 30 31 32 33 33 34 35 36 36 37 38 40 41 42 44 46 47 48 49 48 48 47 46 47 47 47 47 47 47 46 46 44 43 42
25 29 31 33 34 32 30 28 26 26 26 26 26 26 25 25 26 26 25 25 24 24 24 24 23 23 22 22 22 22 21 21 22 24 24 23 24 24 23 22 23 25 26 27 28 27 27 29 29 28 29 29 30 31 32 32 34 34 35 36 37 37 38 40 42 44 46 47 48 49 50 50 49 49 48 49 49 50 51 51 50 49 47 46 45
29 32 33 34 34 31 29 27 27 26 26 26 26 26 26 26 26 26 25 25 24 24 24 24 24 24 23 22 20 19 19 19 20 21 21 21 21 21 21 21 21 22 24 25 26 25 24 26 27 27 27 27 27 29 30 31 33 33 34 35 36 36 37 39 42 44 45 47 48 49 50 51 51 51 50 50 51 52 54 55 55 54 52 51 49
31 33 35 35 32 30 28 27 27 27 26 26 26 26 26 26 26 26 26 25 25 25 25 25 25 25 24 23 21 19 19 19 20 19 20 20 20 19 20 21 22 22 21 22 22 22 21 23 24 25 26 26 26 28 29 30 32 33 34 34 34 35 37 39 41 43 45 46 47 49 50 51 52 52 52 52 52 52 53 55 57 58 57 56 53
32 34 35 33 31 29 28 27 27 26 26 26 26 26 25 26 25 25 25 25 25 25 25 25 25 26 25 24 23 21 20 20 19 20 20 20 20 20 21 22 22 22 20 20 19 18 18 21 23 24 25 25 24 26 28 28 30 32 33 33 33 34 36 37 39 40 42 43 44 46 48 49 51 52 53 54 54 54 53 53 55 58 59 59 58
32 34 33 31 29 28 27 27 26 26 26 26 25 25 25 24 24 24 24 24 25 25 26 26 26 27 27 26 24 22 21 20 19 20 20 20 20 19 20 21 20 20 19 19 17 16 17 20 22 23 25 24 24 25 26 27 29 31 32 31 32 33 34 35 36 37 38 39 40 41 43 45 47 49 51 53 54 54 53 52 52 55 57 58 58
33 34 32 29 28 27 26 26 26 25 25 25 24 24 23 23 22 22 23 23 24 25 26 27 27 27 27 26 25 24 22 20 19 19 19 19 19 19 20 21 20 20 19 18 16 15 16 18 21 22 22 22 22 23 25 27 29 30 31 30 31 32 33 34 34 35 35 36 37 38 39 41 42 44 46 48 48 50 51 52 51 51 54 56 57
34 32 29 28 27 26 25 25 24 24 24 24 23 22 22 21 20 20 21 21 22 23 25 26 27 28 27 27 26 25 23 21 19 18 17 16 17 17 18 19 19 19 19 18 18 18 18 19 21 21 19 19 21 22 25 28 29 30 30 31 31 33 34 35 35 36 37 38 39 40 41 41 41 41 42 42 43 44 45 47 48 49 51 53 55
33 30 27 27 26 25 24 24 23 23 23 22 21 21 20 19 18 18 19 19 20 22 23 25 26 27 27 27 26 25 24 22 20 18 17 15 16 17 18 18 19 18 18 19 20 21 21 21 21 21 20 21 23 24 27 29 30 31 31 32 34 35 37 37 38 40 41 43 44 45 46 46 45 45 45 46 47 47 46 44 43 45 48 50 52
32 28 27 27 26 24 23 23 22 22 21 20 20 19 18 16 16 16 16 17 18 20 21 23 24 26 26 26 25 25 24 22 20 19 18 17 16 17 18 19 18 18 18 19 18 19 19 20 21 23 23 25 26 27 29 30 31 32 34 35 36 38 39 40 42 43 44 45 46 47 48 48 48 49 49 50 52 53 52 49 44 41 41 45 49
30 27 26 26 24 23 23 22 21 20 19 19 18 17 15 14 13 13 14 14 15 17 19 20 22 23 24 24 24 23 23 21 20 19 18 18 17 17 18 18 18 18 19 18 17 18 18 19 22 24 25 26 27 28 30 31 33 34 36 37 38 40 41 42 42 43 44 45 45 46 47 47 47 48 49 50 51 52 54 55 52 46 41 41 45
27 25 24 24 23 22 22 21 21 19 18 17 16 15 13 12 11 11 11 12 13 14 16 18 19 20 22 22 22 22 21 20 19 18 18 17 17 17 17 17 17 18 18 18 17 17 17 19 21 23 24 25 27 29 31 32 33 35 36 37 38 39 40 40 40 41 41 41 41 42 43 44 44 45 46 47 49 50 51 53 55 54 50 47 48
25 23 22 22 22 22 21 21 20 19 18 17 15 13 12 10 9 8 8 9 10 11 13 14 15 17 19 19 19 19 19 19 18 18 17 16 16 16 16 15 16 17 17 18 18 18 19 19 20 20 21 24 27 28 29 31 32 33 34 35 35 36 36 36 37 37 37 37 38 39 39 39 40 41 42 43 44 46 47 48 50 51 51 51 51
23 22 21 21 21 21 21 20 19 19 17 16 15 13 11 9 8 7 6 6 7 8 9 11 12 13 15 17 17 17 17 18 17 17 16 15 15 16 16 15 15 16 17 18 19 20 21 21 21 22 22 24 26 27 27 29 30 30 31 32 32 32 33 34 34 34 35 36 37 38 38 38 39 39 39 40 41 41 42 44 45 46 47 47 47
22 21 20 20 20 20 20 20 19 18 17 16 14 13 11 9 8 6 4 3 3 4 6 7 8 10 12 13 14 14 15 16 16 15 15 13 13 14 15 15 16 17 18 18 18 19 20 21 23 23 24 24 25 25 26 26 26 27 28 28 29 29 30 31 32 33 34 36 38 39 39 39 39 39 39 39 40 41 42 42 43 44 44 44 44
21 21 20 19 19 19 19 19 19 18 17 16 15 13 11 10 9 7 5 3 1 1 2 4 5 6 8 10 11 12 12 13 14 13 13 11 11 12 13 14 15 15 16 16 17 17 19 21 23 23 24 24 24 24 24 24 24 25 25 26 26 27 28 29 30 31 33 35 37 39 40 40 40 39 39 40 41 42 43 44 44 45 45 46 46
20 20 20 19 19 19 19 19 19 18 18 17 16 14 13 11 10 8 6 5 4 2 2 3 4 4 5 7 8 9 9 10 11 11 10 10 9 10 11 12 13 14 14 15 16 18 19 21 22 22 22 23 23 22 22 22 22 23 23 24 23 23 25 26 27 28 30 32 35 36 38 38 38 39 39 39 39 40 41 42 43 43 44 45 45
18 18 18 19 19 19 18 18 18 18 18 17 16 15 14 13 11 9 8 7 6 5 4 4 5 5 5 5 6 7 7 8 8 8 8 8 8 8 10 12 13 13 14 15 17 18 19 20 20 21 21 21 21 20 20 20 20 20 20 21 20 20 20 22 23 24 25 27 29 31 34 34 34 35 36 36 37 37 37 38 38 39 40 40 41
16 17 17 17 18 18 18 18 18 17 17 16 15 15 14 13 12 11 9 8 7 6 6 5 5 5 5 6 6 6 6 6 6 6 5 6 7 8 9 11 12 13 14 16 17 18 18 19 20 20 20 19 19 18 18 17 17 17 18 18 18 17 18 19 20 21 22 24 25 26 28 29 29 30 31 31 32 32 33 33 34 35 35 36 37
16 16 17 17 17 17 17 17 17 17 16 16 15 15 14 14 13 12 10 9 9 8 7 7 6 6 6 6 7 7 7 6 5 4 2 4 7 8 9 10 12 13 14 15 16 16 17 18 18 19 18 17 15 15 14 14 14 14 15 15 16 16 16 16 16 15 16 19 20 21 22 23 24 24 25 25 26 28 29 30 30 31 32 33 34
17 17 17 17 17 17 17 17 17 17 17 16 16 15 14 14 13 12 12 11 10 9 9 9 9 8 8 8 8 8 8 8 6 4 1 3 8 10 9 9 11 12 13 12 12 12 14 15 15 15 15 13 11 11 11 11 12 12 12 12 13 13 13 12 10 8 8 11 14 15 16 16 17 18 18 20 21 23 24 25 27 28 29 31 32
18 18 18 18 18 18 18 18 18 17 17 17 16 16 15 15 14 13 13 12 12 12 12 11 11 11 11 11 10 10 9 9 8 6 5 5 9 11 11 10 10 11 11 10 9 10 11 12 12 11 9 9 9 9 8 8 9 9 9 8 8 9 8 7 6 4 4 6 8 9 8 9 10 11 12 14 16 18 20 22 23 24 26 27 29
19 19 20 19 19 19 19 19 19 19 18 18 18 18 17 17 17 16 15 15 14 14 14 14 14 14 14 13 12 12 11 11 11 10 8 7 9 11 11 11 11 12 12 11 11 10 9 9 9 8 7 8 9 8 7 8 8 6 5 5 4 2 2 2 3 3 1 4 4 3 3 3 5 7 8 10 12 15 17 18 20 21 22 24 25
22 22 21 21 20 20 20 20 20 19 20 20 20 20 20 19 19 18 18 17 16 16 16 16 16 16 16 15 15 14 13 13 13 12 10 9 9 9 9 10 11 12 12 13 12 11 11 11 10 9 8 8 10 9 8 9 10 8 6 6 4 7 7 5 4 4 3 3 5 4 2 3 5 6 7 9 11 13 15 16 17 18 19 20 22
27 26 25 24 23 22 22 21 21 21 22 21 20 20 20 20 20 19 18 18 18 18 17 17 17 17 17 16 15 14 14 13 14 13 12 10 9 9 9 10 11 11 12 13 12 12 12 12 11 11 10 11 11 12 11 11 11 11 10 9 8 10 11 9 7 7 7 6 7 7 7 7 8 8 9 9 10 11 13 15 16 17 18 20 21
31 30 29 27 26 25 24 24 23 24 23 21 21 21 20 20 20 18 18 18 19 18 18 18 18 17 16 16 15 14 14 15 15 15 14 12 11 11 12 12 13 13 14 13 13 13 14 14 14 14 15 15 15 15 15 14 13 13 13 12 12 13 14 13 11 11 11 11 11 11 12 13 13 12 12 12 12 12 13 14 15 17 18 20 21
33 33 33 31 29 28 28 27 26 26 24 23 24 23 22 22 21 20 19 20 21 20 20 19 19 18 17 16 15 15 16 17 16 16 15 14 14 14 15 15 15 16 16 16 16 16 17 17 17 17 18 19 18 18 18 17 16 16 16 16 16 17 15 14 14 14 14 14 15 16 16 17 17 17 17 17 17 16 16 16 16 17 19 20 22
34 35 34 33 32 32 31 29 29 29 28 27 27 25 24 24 24 23 23 23 24 23 22 22 22 21 20 18 18 18 19 19 19 18 18 18 18 18 18 18 18 18 19 19 20 20 20 20 20 19 20 19 18 17 18 18 18 18 19 19 20 19 17 17 17 17 17 17 19 21 21 21 22 22 22 21 21 22 21 21 20 20 20 21 22
37 37 35 34 34 35 34 32 32 32 32 31 30 30 29 28 27 27 26 26 26 26 25 25 25 24 24 22 21 21 22 22 23 23 23 23 24 24 24 23 22 22 21 22 23 23 22 22 22 22 21 21 19 18 19 20 20 20 20 21 22 21 20 19 19 19 19 20 22 24 25 25 26 27 27 26 25 25 25 26 26 26 24 23 24
42 42 39 38 38 38 36 34 33 33 34 34 34 35 34 32 31 30 29 29 29 29 28 29 28 27 27 26 25 24 25 25 27 27 27 27 27 27 27 26 26 26 24 24 25 24 24 24 24 24 23 23 22 21 21 23 23 23 22 23 25 25 24 22 21 21 21 22 24 25 27 28 28 29 30 29 28 28 27 26 27 28 28 27 27
44 45 43 42 41 39 38 36 34 34 37 38 38 38 37 36 34 33 32 32 32 32 32 32 31 30 29 28 28 27 27 28 30 31 30 30 29 29 28 28 28 28 27 27 27 27 26 25 26 26 26 26 25 25 25 26 26 25 25 26 27 28 29 28 27 27 26 24 23 24 26 28 29 30 31 32 32 30 28 26 26 27 28 28 28
45 46 46 45 42 40 39 38 37 38 41 41 41 40 40 39 38 36 34 33 33 33 34 35 35 33 33 33 33 33 32 32 34 34 33 33 32 31 30 30 30 30 28 29 30 31 29 29 29 29 28 28 28 28 28 28 26 26 28 30 31 31 32 32 31 32 32 30 26 24 25 27 28 29 30 32 34 34 30 27 27 28 28 28 29
48 48 48 47 44 41 41 41 41 44 45 45 44 43 42 42 41 39 38 37 37 35 34 36 37 37 37 37 37 38 37 36 35 34 35 35 35 34 34 34 34 32 30 30 33 35 33 32 32 32 32 32 32 31 30 30 28 28 31 34 34 34 35 35 34 34 35 35 32 29 29 29 29 29 30 30 33 37 35 30 27 28 29 30 30
52 50 49 49 47 44 43 44 46 47 48 49 48 46 45 44 43 42 42 43 43 41 39 39 39 39 40 41 41 41 41 39 37 36 36 36 37 38 38 39 40 37 33 32 34 36 37 36 35 34 34 34 34 33 32 32 31 31 33 36 37 38 38 37 37 37 39 38 36 34 33 32 32 32 32 32 32 35 37 35 32 31 33 34 35
Wind_Direction
244 234 233 235 242 261 268 274 309 324 321 328 337 342 343 341 341 342 342 343 351 5 18 28 35 41 44 50 55 56 57 57 57 57 57 58 60 64 66 67 70 72 73 71 69 66 63 62 62 64 65 66 69 66 58 47 42 37 27 25 32 35 35 33 34 38 36 37 41 41 38 31 22 16 12 10 6 4 5 7 9 11 15 16 15
235 214 208 213 220 240 263 288 317 319 317 328 336 340 339 339 342 347 354 9 30 43 50 53 54 57 57 59 62 63 62 61 62 63 63 63 64 66 68 70 71 72 72 70 68 65 63 62 61 61 59 60 62 60 51 42 41 39 25 20 27 33 35 33 32 36 35 34 36 35 30 24 17 13 10 6 3 2 4 7 11 13 18 20 19
226 207 200 202 222 247 269 299 313 310 313 326 333 336 336 339 349 9 37 55 63 65 66 66 67 69 68 68 72 70 68 70 70 70 69 68 68 69 70 71 71 72 71 69 68 66 66 64 62 59 54 53 56 56 49 42 44 40 27 20 23 30 34 31 31 33 31 30 30 28 23 19 14 10 6 4 2 3 6 10 14 16 21 24 24
224 210 229 248 264 272 281 295 302 302 313 325 331 334 338 351 23 58 71 74 74 73 74 73 74 75 72 72 76 74 74 75 73 72 72 72 73 73 72 72 71 71 70 68 66 65 65 65 63 57 50 48 51 54 48 43 45 39 30 24 23 29 32 30 31 32 30 29 27 24 20 15 11 8 6 5 5 7 11 13 17 20 23 28 28
216 245 282 278 279 281 283 288 295 301 313 324 329 336 356 40 71 80 80 79 78 77 78 76 75 75 72 73 75 73 75 75 73 74 74 73 74 74 75 75 74 74 74 72 69 65 64 63 62 57 48 43 47 53 48 42 40 34 31 26 23 29 30 30 33 34 33 30 28 24 20 16 13 13 13 13 14 14 16 19 22 24 27 31 33
230 282 291 280 281 278 275 280 289 297 312 322 331 359 61 82 85 86 84 82 81 79 77 74 73 73 71 71 71 72 73 73 73 74 74 74 73 74 77 78 78 78 78 79 77 73 70 67 65 59 50 41 43 51 50 43 34 29 28 23 23 30 31 32 36 37 37 34 32 28 25 24 22 22 21 21 22 21 22 26 28 29 31 34 38
281 299 290 281 276 254 247 255 272 291 310 324 4 79 95 92 88 87 86 82 80 78 75 73 71 71 71 70 71 73 72 70 71 72 73 74 73 73 77 77 78 78 78 80 80 78 76 73 70 64 54 42 39 48 53 46 33 28 28 26 29 33 33 35 38 40 39 36 34 32 30 29 28 27 26 25 26 27 29 33 34 34 35 37 44
297 299 289 276 248 222 219 228 266 296 315 26 94 103 103 96 89 86 84 80 77 75 75 72 70 71 72 71 72 73 72 71 72 72 73 74 74 74 75 74 73 74 75 76 76 76 74 72 71 67 61 49 38 42 46 42 39 41 41 37 37 39 40 41 41 42 41 38 36 35 33 32 31 30 29 28 30 32 34 38 39 40 40 39 45
286 273 256 225 213 212 209 216 269 315 99 107 107 107 104 97 91 85 81 79 76 74 73 73 73 73 72 72 71 71 71 73 74 74 75 77 78 76 75 73 72 72 72 73 73 73 73 72 72 71 68 60 46 38 35 37 46 53 52 47 44 45 46 45 44 44 42 41 40 38 37 35 34 33 32 32 33 36 39 42 44 45 46 45 46
230 209 191 174 170 171 169 153 126 117 115 112 108 105 101 95 91 85 81 78 75 73 72 73 73 72 71 71 70 70 72 75 76 76 77 78 80 77 74 74 74 72 71 72 73 73 73 73 73 72 71 67 59 49 40 42 50 55 55 54 52 49 47 46 45 45 44 44 43 42 40 39 38 37 36 37 37 40 42 45 48 49 50 51 51
173 167 161 148 132 131 133 128 124 119 116 113 108 103 98 93 89 85 82 78 75 73 72 72 72 70 69 70 71 72 73 76 77 77 77 78 78 76 74 74 73 72 72 71 71 72 73 72 72 72 71 70 67 62 54 50 51 53 55 55 54 51 48 47 46 46 47 47 46 45 44 42 41 40 40 41 42 44 46 48 50 53 54 56 58
169 156 142 135 125 123 125 125 125 122 117 112 106 101 95 91 87 84 81 78 75 73 72 72 72 71 71 71 72 74 75 77 78 77 78 77 73 71 70 69 69 71 73 72 70 70 71 70 70 71 71 71 69 68 64 59 54 52 52 53 53 52 51 50 49 49 49 49 49 48 47 46 45 45 44 45 46 47 49 50 52 55 58 60 63
162 146 132 131 126 123 125 125 124 122 117 111 105 99 95 90 86 83 80 77 75 74 74 73 74 74 74 74 74 76 78 79 79 79 79 76 71 69 67 68 71 74 76 74 71 70 70 69 69 69 69 69 69 69 68 66 62 58 55 54 53 53 52 52 52 51 51 52 52 52 52 51 50 49 48 48 49 50 50 52 54 57 60 63 66
145 138 134 133 128 127 128 127 124 121 116 109 104 99 96 91 87 84 80 77 76 76 77 76 76 75 75 76 76 77 78 79 79 79 76 73 71 68 65 69 76 76 74 74 73 71 70 68 67 66 66 67 67 67 67 66 66 64 62 61 59 57 55 55 54 55 55 56 56 57 56 55 54 53 52 51 51 51 52 52 54 57 61 65 69
137 136 135 133 130 129 130 128 125 121 115 109 104 100 94 89 86 83 81 79 78 77 77 78 77 77 77 76 75 76 76 76 76 74 72 70 68 65 66 73 77 74 73 72 71 69 67 65 63 63 64 63 63 63 63 64 65 66 65 64 63 61 60 59 59 60 60 60 60 60 59 58 57 56 55 54 54 53 53 53 54 56 60 65 70
137 138 134 131 131 132 130 127 125 120 114 109 105 99 93 89 86 83 80 79 78 77 76 77 77 78 77 76 75 74 73 72 72 72 70 66 63 65 71 78 79 75 72 69 67 65 65 65 65 63 62 60 60 62 64 65 64 64 63 63 62 61 61 61 61 62 62 62 62 61 60 59 59 58 57 57 56 56 56 56 56 56 59 62 67
140 140 138 134 133 133 131 128 125 120 114 109 105 100 95 91 87 83 80 78 78 76 75 74 74 75 76 76 74 71 70 70 69 67 66 66 70 74 78 80 77 72 69 67 66 65 66 67 66 63 60 59 61 63 64 64 63 62 61 61 61 60 61 61 61 61 62 62 62 62 61 61 60 60 59 59 59 58 58 58 58 59 60 62 65
139 139 139 137 134 134 131 127 124 118 113 108 104 101 96 92 89 85 82 80 78 77 75 73 71 71 73 74 73 70 71 71 68 66 67 71 77 79 80 78 72 67 67 67 67 65 64 64 63 62 61 63 64 64 64 64 63 63 62 62 62 61 61 61 61 62 62 62 61 61 61 61 61 60 60 60 60 60 60 60 60 61 61 63 65
138 138 138 138 136 134 130 126 122 116 112 108 104 101 97 93 91 88 84 82 80 78 75 73 71 70 71 73 74 72 71 71 71 70 70 73 76 76 78 77 73 70 68 66 66 64 62 61 61 63 64 65 65 64 64 65 65 64 64 64 63 62 62 63 64 63 63 62 61 61 60 60 60 60 61 61 62 62 62 62 61 61 62 63 65
138 138 139 138 136 133 129 125 121 116 113 110 106 102 98 95 92 89 86 83 81 78 74 72 70 68 69 72 74 73 71 73 74 73 71 72 72 73 75 75 74 73 69 66 65 61 60 60 59 62 66 66 66 66 66 67 67 67 67 66 64 64 66 67 67 67 66 64 63 61 61 60 60 60 60 61 62 62 63 63 62 62 62 62 64
138 139 139 138 135 132 129 126 122 118 115 111 107 103 100 97 93 90 87 83 80 76 73 71 69 67 67 70 73 74 74 76 75 73 74 74 73 74 76 76 76 75 72 68 62 56 57 61 60 62 67 69 70 71 70 69 71 71 69 67 67 69 70 70 69 69 68 67 65 64 62 61 61 61 61 62 62 62 63 64 64 63 63 63 63
139 140 140 138 135 132 130 127 123 120 117 112 108 105 101 98 94 90 86 82 79 75 71 68 66 65 65 67 71 74 74 74 74 75 76 76 77 77 78 77 76 75 69 64 59 55 60 68 68 66 68 71 73 73 72 72 73 72 70 69 70 72 72 72 71 71 70 68 66 65 64 63 63 63 63 63 62 62 63 64 66 66 65 65 64
140 141 140 137 136 133 131 128 125 122 118 114 110 106 103 99 95 90 85 81 78 74 71 67 64 63 63 64 67 70 71 71 74 77 77 75 75 76 77 77 75 73 68 64 64 64 64 70 73 71 70 70 71 73 76 76 75 72 71 71 72 73 73 72 71 70 69 67 65 64 64 64 64 65 65 65 64 64 63 64 66 68 68 67 66
142 142 140 138 137 135 132 129 127 123 119 116 112 108 104 99 95 91 86 82 79 74 70 66 63 62 61 61 62 66 69 71 74 77 78 75 73 75 79 76 73 73 74 73 71 68 66 72 76 75 71 69 69 73 78 77 73 71 71 72 73 72 72 70 69 69 68 66 64 63 63 64 65 66 65 63 62 62 63 64 65 67 69 69 68
143 142 140 139 139 136 133 132 129 125 122 119 115 111 106 102 98 92 88 83 79 74 69 65 62 61 59 59 60 63 66 69 71 75 78 74 71 77 81 77 76 78 80 80 77 77 82 83 80 75 71 73 75 76 76 74 72 72 72 72 72 72 71 70 69 68 68 67 65 65 64 64 64 64 63 60 58 58 59 62 64 66 68 70 70
145 144 142 141 141 138 136 135 132 129 126 123 118 113 109 104 99 94 89 83 79 74 69 65 61 59 58 57 59 61 63 65 67 71 76 77 77 82 83 83 85 84 84 85 84 86 88 85 82 80 79 81 81 77 74 73 73 73 73 73 73 72 72 72 72 71 70 69 68 67 66 66 65 64 63 61 59 57 56 58 62 65 66 68 69
146 145 144 144 143 141 141 140 138 134 130 126 122 116 110 104 97 92 88 84 79 73 68 64 60 57 56 55 56 58 62 64 65 68 75 82 84 85 85 86 86 84 84 87 87 86 85 82 82 83 83 82 80 77 75 75 75 76 76 75 75 75 74 74 74 73 72 70 69 69 68 68 67 66 64 63 61 59 57 57 60 63 64 66 66
149 148 147 148 147 146 146 145 143 140 135 130 125 120 113 105 98 92 88 84 78 73 68 63 59 56 53 52 53 55 58 64 67 69 73 79 82 85 85 84 82 83 85 87 86 86 84 80 80 81 80 80 79 79 79 79 79 79 78 78 78 77 76 76 75 74 72 71 70 69 68 68 67 66 65 63 62 60 59 59 60 61 62 62 61
152 151 152 152 152 152 151 151 150 147 142 138 133 127 121 112 104 96 88 84 78 73 69 63 59 55 51 49 50 51 54 60 66 70 71 75 80 85 85 82 84 85 85 85 84 84 80 76 77 80 80 81 82 82 81 81 81 81 81 81 81 80 79 78 77 76 74 73 72 70 69 68 67 66 65 63 62 62 61 61 62 63 63 63 62
156 156 156 158 159 158 158 157 157 156 152 149 144 139 133 126 116 104 93 85 78 73 68 63 58 54 50 45 45 48 51 56 64 69 72 75 79 82 83 85 88 88 85 83 81 80 77 77 80 83 83 84 84 83 82 82 83 83 84 84 84 84 84 83 82 80 79 77 75 74 72 70 69 67 65 64 63 62 62 62 63 65 66 67 68
162 162 161 163 165 165 165 165 165 165 163 161 158 155 151 147 138 126 110 93 81 71 64 61 58 53 49 43 39 41 45 51 60 67 72 77 81 83 87 90 91 87 86 85 84 82 81 84 90 92 92 89 87 85 85 85 85 86 87 87 87 87 87 86 84 83 81 78 77 75 73 72 71 69 67 65 63 61 61 60 61 62 63 65 66
168 168 168 168 169 171 172 173 174 174 174 174 173 171 171 169 166 159 147 122 93 73 58 52 51 50 47 41 36 35 38 46 55 66 73 77 83 88 90 92 92 92 92 92 92 91 91 95 99 100 97 94 92 91 90 89 89 89 88 87 87 86 86 85 83 82 80 78 76 74 72 70 70 69 68 67 65 62 60 59 60 60 60 60 60
175 175 175 175 175 176 178 180 182 183 185 186 187 188 190 191 190 190 194 199 184 85 40 26 28 36 37 35 32 28 30 39 48 61 74 80 85 92 95 97 99 99 99 100 100 101 103 105 105 102 101 100 99 98 97 95 94 91 89 86 85 84 83 82 82 81 80 78 76 74 71 69 68 67 67 67 67 65 63 62 61 62 61 61 62
181 182 183 184 183 183 183 185 187 190 193 195 199 201 205 206 207 210 220 230 237 253 291 322 341 0 11 18 22 19 20 30 40 54 74 87 92 95 102 107 108 107 107 106 108 110 111 110 108 105 104 105 104 102 100 98 95 92 89 87 85 82 82 82 81 81 80 79 77 76 73 70 68 66 66 66 66 66 64 63 62 62 61 61 61
186 189 191 192 192 191 191 192 194 196 199 202 205 209 212 215 217 221 230 237 242 250 266 289 307 319 332 344 357 2 4 16 32 46 71 94 102 105 112 117 117 119 118 117 117 119 119 118 116 113 111 109 108 106 103 100 97 94 92 90 89 87 84 83 82 81 81 80 79 77 74 71 68 66 66 65 63 62 62 61 59 59 59 59 59
191 193 196 197 198 199 199 200 201 203 206 208 211 214 218 220 223 226 230 233 237 244 256 270 282 292 300 313 326 334 338 350 12 35 68 106 122 124 127 130 131 132 130 128 129 129 128 126 123 118 115 113 112 111 109 107 105 102 100 97 96 94 89 86 84 82 81 80 80 79 74 68 66 67 66 64 61 59 59 59 57 56 56 56 56
197 198 200 201 202 204 204 205 206 207 209 212 215 218 221 224 226 227 227 228 231 236 245 250 256 265 276 286 296 305 311 317 333 1 59 138 153 151 147 149 152 149 144 140 140 140 138 136 130 125 121 119 119 120 119 119 117 114 111 109 106 102 96 89 84 79 79 79 78 78 74 68 65 64 62 57 54 54 56 57 56 55 54 54 53
202 204 205 206 206 207 208 207 208 209 210 212 215 217 220 222 224 224 223 223 224 227 232 238 244 253 260 269 276 282 287 292 299 308 289 186 182 177 173 173 172 167 160 153 151 153 152 148 144 140 136 134 134 135 132 130 130 127 123 121 118 113 105 95 84 70 71 80 77 73 72 69 63 58 52 47 45 45 47 48 48 49 48 48 48
207 208 210 212 212 212 212 211 211 211 212 213 215 216 218 220 221 222 222 222 224 228 232 239 247 253 256 259 262 264 267 271 273 271 248 210 201 199 198 198 194 186 180 180 180 177 173 169 167 166 164 165 164 160 161 161 151 140 136 137 134 129 121 108 98 80 53 60 67 67 69 63 52 45 39 36 34 33 32 34 35 36 37 38 39
212 212 214 214 216 218 217 218 217 217 218 219 220 221 222 224 226 228 229 230 232 235 239 243 247 250 252 253 254 254 256 258 260 260 246 219 211 212 210 211 209 204 206 214 213 203 202 206 208 212 212 202 197 200 206 197 187 186 180 169 164 175 191 173 147 146 24 2 8 32 57 37 17 15 13 13 16 16 16 17 19 22 24 25 27
220 217 217 216 217 219 220 221 221 221 223 225 226 226 227 229 231 232 233 235 237 238 240 242 243 245 247 250 252 253 252 250 253 256 247 228 219 217 216 218 220 221 225 232 231 228 231 237 237 244 249 238 228 231 232 216 217 237 230 204 248 292 275 246 211 206 237 301 305 301 295 298 316 329 337 345 353 357 359 359 1 4 6 10 12
225 222 219 218 218 219 220 221 221 222 224 226 228 229 229 231 234 233 233 235 237 238 239 240 242 243 245 248 249 247 243 241 241 244 242 234 226 224 224 225 228 234 238 241 242 243 246 247 247 253 261 259 248 244 249 246 238 245 243 232 258 288 282 263 245 242 252 263 269 272 271 276 289 297 306 317 326 333 337 340 343 345 348 350 353
221 223 222 220 220 221 222 223 224 225 226 225 227 229 230 233 236 235 234 236 237 238 239 239 240 241 242 246 245 240 236 235 237 239 239 235 231 231 233 233 234 238 244 248 249 248 248 249 251 255 260 262 259 253 255 255 249 250 255 254 266 282 282 271 260 260 265 264 263 267 269 273 279 282 287 294 300 307 314 320 325 328 331 333 336
216 220 222 221 220 221 223 225 226 230 230 229 229 230 229 232 234 234 235 236 238 239 239 238 238 239 239 242 242 238 236 238 242 245 243 240 239 238 238 239 239 241 245 249 251 251 251 252 252 255 259 260 259 259 259 257 257 260 261 261 268 279 282 272 262 261 266 267 268 270 270 271 275 279 284 286 289 293 297 301 306 310 313 317 320
220 221 222 223 225 224 224 224 227 231 232 232 233 234 233 233 233 232 232 234 238 242 241 238 239 240 239 239 241 240 240 242 246 247 244 242 243 246 249 250 248 245 245 247 250 252 254 257 258 261 264 262 259 259 262 261 261 264 263 262 267 275 281 278 271 267 269 271 272 273 273 272 273 276 279 281 283 287 292 296 297 297 297 300 303
229 225 222 224 228 229 226 225 228 231 233 234 235 236 235 234 234 234 233 234 237 241 242 241 240 242 243 242 242 242 242 242 244 245 244 243 243 247 252 255 254 252 250 251 252 253 255 258 261 262 264 265 263 262 266 267 267 267 267 267 269 273 278 281 279 277 277 277 277 277 277 278 278 278 280 280 278 279 283 288 292 293 293 293 293
233 230 226 224 227 229 228 227 229 234 237 237 237 238 237 236 236 236 236 237 238 240 242 243 243 243 246 248 248 248 248 247 247 247 246 245 245 247 249 252 254 255 254 255 257 257 255 257 260 262 264 268 269 269 270 271 272 273 273 272 273 275 277 279 280 280 280 280 280 280 279 279 280 282 284 284 283 281 280 281 283 288 292 292 291
236 236 233 230 228 228 230 231 233 239 242 240 239 240 240 239 238 238 238 239 242 242 243 244 244 244 246 250 251 250 250 251 251 252 251 248 247 249 250 252 254 254 253 256 260 260 258 257 259 261 263 266 267 267 270 273 275 277 278 276 276 277 277 277 278 280 281 282 284 286 284 281 281 282 283 285 287 286 284 282 281 283 287 290 291
238 240 238 235 233 231 232 235 237 241 244 245 245 245 245 244 242 241 241 241 243 247 247 247 246 245 243 245 247 246 246 248 251 254 256 256 254 253 253 255 256 256 256 259 262 262 262 262 262 261 261 262 263 265 268 271 273 276 278 278 278 278 277 277 279 280 280 280 283 286 286 285 285 285 284 285 286 286 285 283 280 280 283 287 290
240 242 240 238 238 235 234 237 240 242 243 245 248 249 249 249 248 247 247 246 245 246 250 251 252 250 246 245 246 246 246 248 251 254 257 260 261 261 260 260 260 260 258 260 263 263 262 263 265 264 263 262 264 267 268 269 270 273 275 276 277 278 277 277 279 280 279 280 281 282 283 285 288 288 287 286 285 286 287 285 281 279 280 284 288
241 243 242 242 241 237 235 236 238 241 242 242 244 247 247 248 248 248 249 250 249 248 249 252 254 255 253 251 250 250 249 249 250 252 253 256 258 261 263 264 264 263 261 261 262 261 261 262 264 264 264 264 266 268 269 270 270 271 272 273 274 276 276 277 279 280 279 279 279 278 279 281 284 287 287 286 284 283 286 287 285 282 280 282 287
Height
10960 10960 10961 10962 10962 10963 10964 10963 10963 10962 10962 10962 10961 10959 10958 10957 10955 10954 10952 10951 10949 10947 10945 10944 10942 10941 10939 10938 10937 10936 10935 10934 10933 10931 10930 10930 10929 10928 10927 10926 10926 10925 10925 10924 10924 10924 10923 10923 10923 10923 10922 10922 10922 10921 10920 10919 10918 10917 10915 10914 10913 10911 10909 10908 10906 10905 10904 10902 10901 10899 10897 10895 10893 10891 10888 10885 10883 10880 10877 10873 10869 10865 10861 10856 10850
10959 10959 10960 10961 10962 10963 10963 10963 10963 10963 10963 10962 10961 10960 10959 10958 10956 10955 10953 10952 10950 10949 10947 10945 10943 10942 10940 10939 10938 10937 10936 10935 10934 10933 10932 10932 10931 10930 10929 10929 10928 10928 10927 10926 10926 10925 10925 10924 10924 10923 10923 10923 10923 10922 10921 10920 10920 10919 10917 10915 10914 10912 10910 10909 10908 10906 10905 10903 10902 10900 10898 10896 10894 10891 10889 10886 10883 10880 10877 10873 10870 10865 10861 10856 10850
10957 10958 10959 10960 10961 10962 10962 10963 10963 10963 10963 10963 10962 10961 10960 10959 10958 10957 10955 10954 10952 10950 10948 10947 10945 10943 10942 10940 10939 10939 10938 10937 10936 10935 10934 10933 10933 10931 10930 10930 10930 10929 10928 10928 10927 10927 10926 10925 10924 10923 10923 10923 10923 10923 10922 10921 10921 10920 10919 10918 10916 10913 10911 10909 10908 10907 10906 10904 10903 10901 10899 10897 10894 10892 10889 10887 10884 10881 10877 10874 10870 10865 10860 10855 10849
10957 10957 10958 10959 10960 10961 10962 10963 10964 10964 10964 10964 10963 10963 10962 10961 10960 10959 10957 10956 10954 10952 10950 10950 10948 10946 10944 10942 10942 10941 10940 10939 10938 10937 10936 10936 10935 10933 10932 10932 10932 10931 10930 10930 10929 10929 10927 10926 10925 10924 10923 10923 10923 10924 10923 10923 10922 10922 10921 10919 10917 10914 10912 10910 10909 10908 10906 10905 10903 10902 10900 10897 10895 10892 10890 10887 10884 10881 10877 10874 10869 10865 10861 10855 10848
10957 10957 10958 10959 10960 10961 10962 10963 10964 10964 10965 10965 10965 10964 10963 10962 10961 10961 10960 10958 10956 10954 10953 10952 10951 10949 10947 10946 10945 10944 10943 10942 10941 10940 10939 10938 10937 10936 10935 10934 10934 10933 10932 10931 10931 10931 10930 10929 10927 10925 10924 10923 10924 10925 10925 10924 10924 10923 10921 10919 10917 10915 10913 10912 10910 10909 10908 10906 10904 10902 10900 10898 10895 10893 10890 10887 10884 10881 10878 10874 10870 10865 10861 10856 10849
10956 10956 10957 10958 10959 10960 10962 10963 10964 10965 10966 10967 10966 10966 10965 10964 10963 10962 10962 10960 10958 10957 10956 10955 10953 10952 10951 10950 10949 10948 10947 10946 10945 10944 10942 10941 10940 10939 10937 10937 10936 10935 10934 10933 10932 10932 10932 10931 10929 10927 10926 10925 10925 10926 10926 10926 10926 10924 10922 10920 10918 10916 10914 10913 10911 10910 10909 10907 10905 10903 10901 10898 10895 10893 10890 10887 10884 10881 10878 10875 10871 10867 10863 10859 10852
10955 10955 10956 10957 10959 10961 10962 10964 10965 10966 10968 10968 10968 10967 10967 10967 10966 10965 10964 10963 10961 10959 10958 10958 10956 10955 10954 10953 10952 10952 10951 10949 10948 10947 10946 10944 10943 10942 10940 10939 10939 10938 10937 10935 10934 10934 10934 10933 10931 10930 10928 10927 10925 10926 10927 10928 10928 10927 10924 10922 10920 10918 10916 10914 10913 10911 10909 10908 10906 10904 10901 10898 10896 10893 10891 10888 10885 10882 10879 10876 10873 10869 10866 10863 10858
10954 10955 10956 10958 10960 10961 10963 10965 10967 10968 10969 10969 10969 10969 10969 10969 10968 10967 10967 10965 10964 10962 10961 10960 10959 10958 10957 10956 10956 10955 10954 10952 10952 10950 10949 10948 10947 10945 10944 10943 10942 10941 10940 10938 10936 10936 10936 10935 10934 10932 10931 10929 10927 10925 10926 10929 10931 10929 10926 10923 10921 10920 10918 10917 10915 10912 10910 10909 10907 10904 10902 10899 10897 10894 10892 10889 10886 10884 10881 10878 10875 10871 10869 10866 10863
10955 10957 10958 10960 10961 10963 10965 10966 10968 10969 10970 10970 10970 10971 10971 10971 10971 10970 10969 10968 10966 10965 10964 10963 10962 10961 10960 10960 10959 10958 10956 10955 10954 10953 10952 10951 10950 10949 10948 10948 10947 10945 10943 10941 10939 10939 10939 10938 10936 10934 10933 10932 10930 10926 10925 10928 10931 10930 10927 10925 10923 10922 10920 10919 10917 10914 10912 10911 10909 10906 10904 10901 10899 10897 10894 10892 10888 10885 10882 10879 10877 10874 10872 10870 10866
10958 10959 10960 10962 10964 10965 10967 10968 10970 10971 10971 10972 10973 10973 10973 10973 10973 10973 10972 10970 10969 10968 10967 10966 10965 10964 10964 10963 10962 10961 10960 10959 10958 10956 10956 10955 10953 10953 10952 10952 10950 10948 10946 10944 10944 10943 10942 10941 10939 10937 10936 10936 10935 10930 10927 10929 10930 10929 10929 10928 10926 10923 10922 10921 10919 10917 10915 10913 10910 10908 10906 10904 10902 10900 10898 10895 10891 10887 10885 10882 10879 10877 10875 10874 10870
10960 10961 10963 10964 10966 10967 10968 10970 10972 10973 10973 10974 10975 10975 10975 10975 10975 10975 10974 10973 10972 10971 10970 10968 10967 10967 10966 10966 10965 10964 10963 10962 10961 10960 10959 10958 10957 10956 10956 10955 10953 10951 10950 10949 10949 10948 10946 10944 10942 10940 10939 10939 10939 10935 10933 10931 10929 10929 10930 10929 10927 10925 10924 10923 10922 10920 10918 10915 10913 10911 10909 10907 10906 10904 10902 10898 10894 10891 10888 10885 10882 10880 10878 10877 10875
10962 10964 10965 10967 10968 10969 10970 10972 10973 10974 10975 10976 10976 10977 10977 10977 10977 10976 10976 10975 10974 10973 10972 10971 10970 10969 10969 10968 10968 10967 10966 10965 10964 10963 10963 10962 10961 10960 10959 10958 10957 10955 10954 10954 10953 10951 10950 10948 10946 10944 10943 10943 10942 10940 10938 10935 10932 10931 10932 10930 10928 10928 10927 10926 10925 10924 10921 10918 10916 10914 10912 10912 10910 10908 10905 10902 10898 10894 10891 10888 10885 10883 10882 10880 10878
10964 10966 10967 10969 10970 10971 10973 10974 10975 10977 10977 10978 10978 10979 10979 10979 10979 10979 10978 10976 10976 10975 10974 10974 10973 10972 10972 10971 10970 10969 10969 10968 10967 10966 10966 10965 10964 10963 10962 10962 10961 10960 10959 10958 10957 10955 10954 10952 10950 10948 10947 10946 10945 10944 10943 10941 10940 10939 10937 10934 10932 10931 10931 10929 10928 10926 10924 10921 10919 10918 10918 10916 10914 10911 10908 10905 10901 10898 10895 10892 10889 10886 10885 10884 10882
10966 10968 10969 10971 10972 10973 10975 10976 10978 10979 10980 10980 10981 10981 10981 10981 10981 10981 10980 10979 10978 10977 10976 10976 10975 10975 10974 10973 10973 10972 10971 10971 10970 10969 10968 10967 10966 10965 10965 10966 10965 10963 10962 10961 10960 10958 10957 10955 10954 10953 10952 10951 10949 10947 10945 10945 10946 10946 10944 10940 10938 10937 10935 10934 10932 10930 10928 10926 10925 10924 10922 10920 10917 10914 10911 10908 10905 10902 10899 10896 10893 10890 10888 10887 10885
10968 10970 10971 10973 10974 10975 10977 10978 10980 10981 10982 10982 10983 10983 10983 10984 10983 10983 10982 10981 10981 10980 10979 10978 10977 10977 10977 10976 10976 10975 10974 10973 10973 10972 10970 10970 10969 10968 10968 10968 10967 10965 10964 10964 10963 10961 10959 10958 10958 10957 10956 10955 10952 10949 10948 10950 10951 10951 10948 10945 10943 10942 10942 10940 10938 10936 10934 10932 10929 10927 10925 10922 10920 10917 10914 10912 10909 10906 10903 10900 10897 10894 10892 10890 10888
10971 10972 10973 10975 10976 10977 10979 10981 10982 10983 10984 10984 10985 10986 10986 10986 10986 10985 10984 10983 10983 10983 10983 10981 10980 10980 10979 10979 10978 10977 10977 10976 10975 10974 10973 10972 10972 10971 10971 10970 10969 10969 10968 10967 10966 10964 10963 10963 10962 10960 10960 10958 10955 10954 10954 10954 10954 10952 10949 10947 10946 10946 10946 10944 10942 10940 10937 10935 10932 10930 10928 10925 10923 10921 10918 10915 10913 10910 10908 10905 10902 10899 10897 10895 10892
10973 10974 10975 10977 10978 10980 10981 10983 10984 10985 10986 10986 10987 10988 10988 10988 10988 10988 10987 10986 10985 10985 10985 10984 10984 10982 10982 10981 10981 10980 10979 10978 10977 10977 10976 10975 10974 10974 10974 10973 10972 10972 10971 10970 10969 10969 10968 10967 10963 10961 10962 10962 10960 10960 10959 10958 10956 10953 10951 10949 10949 10949 10948 10947 10945 10943 10940 10937 10935 10933 10931 10929 10927 10925 10922 10919 10917 10915 10912 10909 10906 10904 10902 10899 10896
10974 10976 10977 10979 10980 10982 10984 10985 10986 10987 10988 10988 10989 10990 10990 10991 10990 10990 10989 10989 10988 10988 10988 10987 10986 10985 10984 10983 10982 10982 10981 10980 10979 10978 10978 10978 10977 10976 10976 10975 10975 10975 10974 10973 10972 10973 10972 10968 10964 10964 10965 10966 10965 10964 10962 10960 10957 10955 10954 10953 10953 10952 10951 10950 10948 10946 10944 10941 10938 10936 10935 10933 10931 10929 10926 10924 10921 10919 10916 10914 10911 10909 10907 10904 10901
10976 10978 10979 10981 10983 10985 10987 10988 10989 10990 10990 10991 10992 10993 10993 10993 10993 10992 10992 10991 10991 10990 10990 10989 10988 10987 10986 10985 10984 10983 10983 10982 10981 10980 10980 10980 10980 10979 10978 10978 10978 10978 10977 10975 10974 10975 10974 10971 10969 10968 10968 10968 10968 10966 10965 10963 10960 10958 10958 10957 10956 10955 10954 10954 10952 10950 10947 10945 10942 10941 10939 10938 10936 10934 10931 10929 10926 10924 10921 10918 10916 10914 10912 10909 10906
10978 10980 10982 10984 10985 10987 10989 10990 10991 10992 10993 10994 10995 10995 10995 10995 10995 10995 10994 10994 10993 10992 10992 10991 10990 10989 10988 10987 10986 10985 10984 10983 10983 10982 10982 10982 10981 10981 10980 10981 10981 10981 10980 10979 10977 10977 10977 10976 10974 10972 10970 10971 10971 10969 10968 10966 10964 10962 10961 10960 10960 10959 10959 10957 10955 10953 10951 10949 10947 10946 10944 10942 10941 10939 10937 10934 10932 10929 10927 10924 10922 10919 10917 10915 10912
10981 10982 10984 10986 10988 10990 10991 10993 10994 10995 10996 10997 10997 10997 10997 10998 10997 10997 10997 10996 10995 10995 10994 10993 10992 10991 10990 10989 10988 10987 10986 10985 10984 10984 10983 10983 10983 10983 10983 10982 10983 10983 10983 10981 10980 10980 10980 10979 10978 10976 10974 10974 10975 10972 10970 10969 10968 10966 10964 10963 10964 10964 10963 10961 10959 10957 10955 10953 10952 10951 10949 10948 10946 10944 10942 10940 10937 10935 10932 10930 10928 10925 10923 10920 10918
10984 10986 10988 10990 10991 10993 10994 10995 10996 10997 10998 10999 10999 10999 10999 11000 11000 10999 10999 10998 10997 10997 10996 10995 10994 10993 10992 10991 10990 10989 10988 10987 10986 10986 10985 10985 10985 10986 10985 10984 10985 10985 10984 10983 10983 10983 10983 10981 10980 10979 10977 10977 10978 10975 10972 10973 10972 10969 10967 10967 10968 10968 10967 10965 10963 10961 10959 10958 10957 10955 10954 10953 10951 10950 10948 10945 10943 10940 10938 10936 10933 10931 10929 10926 10924
10988 10990 10992 10993 10995 10996 10997 10998 10999 11000 11001 11001 11001 11002 11002 11002 11002 11001 11001 11000 10999 10999 10998 10997 10996 10995 10994 10993 10992 10991 10990 10989 10989 10988 10988 10987 10987 10987 10987 10987 10987 10986 10985 10985 10986 10986 10985 10983 10983 10982 10980 10980 10981 10979 10977 10977 10976 10972 10971 10972 10973 10972 10970 10968 10967 10965 10964 10963 10962 10960 10959 10958 10956 10955 10953 10950 10948 10946 10944 10942 10939 10937 10935 10933 10930
10991 10993 10995 10997 10998 10999 11000 11001 11002 11003 11003 11003 11004 11004 11004 11004 11004 11003 11002 11002 11001 11001 11000 11000 10999 10997 10996 10995 10994 10993 10992 10991 10991 10990 10990 10989 10989 10989 10989 10989 10989 10988 10988 10988 10988 10987 10986 10986 10985 10983 10982 10983 10985 10985 10982 10980 10978 10976 10976 10977 10977 10975 10974 10972 10970 10969 10968 10967 10966 10965 10963 10962 10960 10959 10957 10955 10953 10951 10949 10947 10945 10943 10940 10938 10937
10994 10996 10998 10999 11001 11002 11003 11004 11005 11005 11006 11006 11006 11006 11006 11006 11006 11005 11004 11004 11003 11003 11002 11002 11001 11000 10998 10997 10996 10995 10994 10993 10993 10992 10992 10992 10991 10991 10991 10991 10991 10991 10991 10991 10990 10989 10989 10989 10987 10985 10985 10987 10989 10989 10986 10982 10982 10981 10981 10982 10981 10979 10977 10975 10974 10974 10973 10972 10970 10969 10967 10966 10964 10963 10961 10959 10957 10955 10953 10952 10950 10948 10946 10944 10942
10996 10999 11000 11002 11003 11004 11005 11006 11007 11007 11008 11008 11008 11008 11008 11008 11008 11007 11007 11006 11006 11005 11004 11004 11003 11002 11000 10999 10998 10997 10996 10995 10995 10994 10993 10993 10993 10993 10993 10993 10993 10993 10993 10993 10992 10991 10991 10990 10989 10989 10990 10991 10991 10990 10988 10986 10986 10986 10985 10985 10984 10983 10981 10979 10979 10978 10977 10976 10975 10973 10971 10970 10968 10967 10965 10963 10961 10959 10957 10955 10954 10953 10952 10950 10948
10999 11001 11002 11004 11005 11006 11007 11008 11009 11009 11010 11010 11010 11010 11010 11010 11010 11009 11009 11008 11008 11007 11006 11005 11005 11004 11002 11002 11001 10999 10998 10997 10997 10996 10995 10995 10995 10995 10995 10995 10995 10995 10995 10995 10994 10993 10993 10993 10992 10993 10993 10992 10992 10991 10990 10990 10990 10990 10989 10988 10988 10986 10985 10984 10983 10982 10981 10980 10979 10977 10975 10974 10972 10971 10969 10967 10965 10963 10961 10959 10957 10957 10956 10955 10954
11001 11002 11004 11005 11006 11008 11008 11009 11010 11011 11011 11011 11012 11012 11012 11012 11011 11011 11011 11010 11010 11009 11008 11007 11007 11006 11004 11004 11003 11002 11001 11000 10999 10999 10998 10998 10997 10997 10997 10997 10997 10997 10996 10996 10996 10996 10996 10995 10995 10995 10995 10995 10995 10994 10994 10994 10994 10993 10992 10992 10991 10990 10989 10988 10987 10986 10985 10984 10983 10981 10980 10978 10976 10974 10973 10971 10969 10967 10965 10963 10961 10960 10960 10959 10958
11003 11004 11006 11007 11008 11009 11010 11010 11011 11012 11012 11012 11013 11013 11013 11013 11013 11013 11013 11012 11012 11011 11010 11009 11009 11008 11007 11006 11005 11004 11003 11002 11001 11001 11000 10999 10999 10999 10999 10998 10998 10998 10998 10998 10998 10998 10998 10998 10997 10998 10998 10998 10998 10997 10997 10996 10996 10996 10995 10995 10995 10993 10992 10992 10991 10990 10989 10988 10986 10984 10983 10981 10980 10978 10976 10975 10973 10972 10970 10968 10965 10964 10964 10963 10963
11004 11006 11007 11008 11009 11010 11011 11012 11012 11012 11013 11013 11014 11014 11014 11014 11014 11014 11014 11014 11013 11013 11012 11011 11010 11010 11009 11008 11007 11006 11005 11004 11003 11003 11002 11001 11001 11001 11000 11000 11000 11000 11000 10999 11000 11000 11000 10999 10999 11000 11000 11001 11000 10999 10999 10999 10999 10998 10998 10998 10997 10996 10995 10994 10993 10992 10991 10990 10988 10987 10986 10984 10982 10981 10980 10978 10977 10976 10975 10973 10971 10969 10968 10967 10967
11005 11007 11008 11009 11010 11011 11011 11012 11013 11013 11014 11014 11014 11015 11015 11015 11015 11015 11015 11015 11014 11014 11014 11013 11012 11012 11011 11010 11009 11008 11007 11006 11005 11004 11004 11003 11003 11002 11002 11002 11002 11002 11001 11001 11001 11001 11001 11001 11001 11002 11002 11002 11002 11001 11002 11002 11001 11000 11000 11000 10999 10998 10998 10997 10995 10995 10994 10993 10991 10990 10989 10987 10985 10983 10982 10981 10980 10979 10979 10977 10976 10974 10973 10972 10971
11006 11007 11008 11009 11010 11011 11012 11012 11013 11014 11014 11015 11015 11015 11015 11016 11016 11016 11016 11015 11015 11015 11015 11014 11014 11013 11012 11011 11011 11010 11009 11008 11007 11006 11006 11005 11005 11004 11004 11004 11004 11003 11003 11003 11003 11004 11004 11004 11004 11004 11004 11004 11004 11004 11004 11004 11003 11003 11002 11002 11001 11001 11000 10999 10998 10997 10996 10995 10994 10993 10992 10990 10988 10987 10985 10984 10983 10982 10982 10980 10979 10978 10977 10976 10975
11006 11007 11008 11009 11010 11011 11011 11012 11013 11013 11014 11014 11015 11015 11016 11016 11016 11016 11016 11016 11016 11016 11015 11015 11015 11014 11013 11013 11012 11011 11010 11010 11009 11008 11007 11007 11007 11007 11006 11006 11006 11006 11006 11005 11005 11006 11006 11006 11006 11006 11006 11006 11006 11006 11005 11005 11005 11005 11004 11004 11004 11004 11003 11002 11001 11000 10999 10998 10996 10995 10994 10994 10992 10991 10989 10988 10986 10985 10984 10983 10982 10981 10980 10979 10978
11006 11007 11008 11009 11009 11010 11011 11012 11013 11013 11014 11014 11015 11015 11015 11016 11016 11016 11016 11016 11016 11016 11016 11016 11015 11015 11014 11014 11013 11012 11012 11011 11010 11010 11009 11009 11009 11009 11008 11008 11008 11008 11008 11008 11007 11007 11008 11008 11008 11009 11009 11009 11008 11008 11007 11007 11007 11006 11006 11005 11005 11006 11005 11004 11003 11002 11001 11000 10999 10998 10997 10996 10996 10994 10993 10992 10991 10989 10988 10987 10985 10984 10983 10982 10981
11006 11007 11008 11009 11009 11010 11011 11011 11012 11013 11013 11014 11014 11015 11015 11015 11016 11016 11016 11016 11016 11016 11016 11016 11016 11016 11015 11015 11014 11013 11013 11012 11012 11011 11010 11010 11010 11010 11010 11010 11010 11010 11009 11009 11009 11009 11009 11009 11009 11010 11010 11010 11010 11009 11009 11009 11008 11008 11007 11006 11006 11006 11006 11005 11004 11003 11002 11001 11001 11000 11000 10999 10998 10997 10996 10995 10994 10993 10992 10991 10990 10988 10987 10985 10984
11006 11006 11007 11008 11009 11010 11010 11011 11012 11012 11013 11014 11014 11014 11015 11015 11015 11015 11016 11016 11016 11016 11016 11016 11016 11016 11015 11015 11015 11014 11014 11013 11013 11012 11011 11011 11011 11011 11011 11011 11011 11011 11010 11010 11010 11010 11010 11010 11010 11010 11011 11011 11011 11011 11011 11010 11010 11009 11008 11007 11007 11007 11007 11006 11006 11005 11004 11002 11001 11001 11001 11001 11001 11000 10999 10998 10997 10996 10995 10994 10993 10992 10991 10989 10988
11004 11005 11006 11007 11008 11009 11010 11010 11011 11012 11012 11013 11013 11013 11014 11014 11014 11015 11015 11015 11015 11015 11015 11015 11015 11015 11015 11015 11015 11015 11015 11014 11014 11013 11012 11012 11012 11012 11012 11011 11011 11011 11011 11011 11011 11011 11011 11011 11011 11012 11012 11012 11012 11012 11012 11011 11010 11009 11009 11008 11007 11007 11006 11006 11006 11006 11005 11003 11002 11001 11002 11003 11003 11002 11001 11000 10999 10998 10997 10996 10995 10994 10993 10992 10991
11002 11003 11004 11005 11006 11007 11008 11009 11010 11010 11011 11011 11012 11012 11013 11013 11013 11014 11014 11014 11014 11014 11014 11014 11014 11014 11014 11015 11015 11015 11015 11014 11014 11013 11013 11013 11013 11012 11012 11012 11012 11011 11011 11012 11012 11012 11012 11012 11012 11012 11013 11013 11013 11013 11013 11012 11011 11010 11010 11009 11008 11007 11006 11005 11005 11006 11005 11002 11001 11001 11002 11003 11004 11004 11003 11002 11001 11000 10999 10997 10996 10995 10995 10994 10993
11000 11001 11002 11003 11004 11005 11006 11007 11008 11008 11009 11010 11010 11010 11011 11011 11012 11012 11012 11013 11013 11013 11013 11013 11013 11013 11013 11014 11014 11015 11014 11014 11013 11012 11012 11011 11012 11012 11012 11012 11012 11013 11013 11013 11013 11013 11013 11013 11013 11013 11013 11013 11013 11013 11013 11012 11011 11011 11010 11010 11009 11007 11006 11005 11004 11005 11004 11002 11001 11002 11003 11004 11004 11004 11004 11003 11002 11001 11000 10999 10998 10996 10995 10994 10994
10998 10999 10999 11000 11002 11003 11004 11005 11005 11007 11007 11008 11008 11009 11009 11009 11010 11010 11011 11011 11011 11011 11012 11012 11012 11012 11013 11013 11013 11014 11014 11013 11013 11012 11011 11011 11011 11012 11012 11012 11012 11013 11013 11013 11013 11013 11013 11013 11013 11013 11013 11013 11013 11013 11012 11012 11011 11011 11011 11010 11010 11009 11007 11005 11004 11003 11003 11002 11002 11002 11003 11004 11004 11004 11004 11003 11002 11001 11000 10999 10998 10997 10996 10995 10994
10996 10996 10997 10998 10999 11000 11001 11002 11003 11004 11005 11006 11006 11006 11006 11007 11007 11008 11009 11010 11010 11010 11011 11011 11011 11011 11012 11012 11012 11013 11013 11013 11012 11012 11012 11011 11011 11012 11012 11012 11012 11012 11013 11013 11013 11012 11013 11013 11013 11013 11013 11013 11012 11012 11011 11011 11010 11010 11010 11010 11010 11009 11008 11007 11005 11003 11002 11002 11002 11002 11003 11003 11004 11004 11003 11003 11002 11001 11000 10999 10999 10998 10997 10996 10995
10993 10993 10993 10994 10995 10996 10997 10999 11000 11001 11002 11003 11004 11004 11005 11005 11006 11007 11008 11008 11009 11009 11009 11010 11010 11010 11011 11010 11011 11011 11011 11011 11011 11011 11011 11011 11011 11011 11011 11011 11011 11011 11011 11012 11012 11011 11011 11011 11011 11011 11012 11012 11011 11010 11010 11009 11009 11009 11009 11009 11009 11008 11007 11007 11006 11004 11003 11002 11002 11002 11002 11002 11003 11003 11002 11002 11002 11001 11000 10999 10998 10997 10996 10996 10995
10985 10988 10989 10990 10991 10992 10993 10995 10997 10997 10999 11000 11001 11002 11003 11004 11005 11006 11007 11007 11007 11007 11008 11008 11009 11009 11009 11009 11009 11009 11010 11009 11009 11009 11009 11009 11009 11009 11009 11009 11009 11010 11010 11010 11010 11010 11010 11010 11009 11010 11010 11010 11010 11009 11008 11008 11008 11007 11007 11007 11007 11006 11006 11006 11005 11004 11004 11003 11002 11002 11001 11001 11001 11001 11001 11001 11000 11000 10999 10999 10998 10997 10996 10995 10994
10979 10981 10984 10986 10987 10988 10989 10991 10993 10994 10996 10998 10998 10999 11000 11001 11003 11004 11004 11004 11004 11004 11005 11005 11005 11006 11007 11007 11008 11008 11008 11008 11008 11008 11008 11008 11008 11007 11007 11007 11007 11008 11008 11008 11008 11008 11008 11009 11009 11009 11009 11009 11008 11007 11007 11007 11007 11006 11006 11005 11005 11005 11004 11004 11003 11003 11003 11002 11002 11001 11001 11000 11000 10999 10999 10999 10998 10998 10998 10998 10997 10996 10995 10994 10994
10977 10978 10980 10982 10984 10985 10986 10988 10990 10991 10993 10995 10995 10996 10997 10998 10999 11000 11000 11001 11001 11001 11002 11002 11003 11003 11005 11005 11005 11006 11006 11006 11006 11007 11007 11006 11006 11005 11005 11005 11006 11006 11006 11006 11006 11006 11007 11007 11007 11007 11007 11007 11006 11006 11005 11005 11005 11004 11003 11003 11003 11003 11002 11001 11001 11001 11001 11000 11000 10999 10999 10998 10998 10998 10997 10997 10996 10995 10995 10995 10995 10995 10994 10993 10992
10975 10976 10977 10978 10980 10982 10983 10985 10987 10988 10990 10992 10993 10993 10994 10994 10996 10996 10997 10997 10997 10998 10999 10999 11000 11001 11002 11002 11003 11003 11003 11004 11003 11003 11003 11003 11003 11003 11003 11003 11004 11004 11004 11004 11003 11004 11004 11004 11004 11005 11004 11004 11004 11004 11003 11003 11002 11002 11001 11001 11001 11000 11000 10999 10999 10998 10998 10997 10997 10997 10996 10995 10995 10995 10995 10995 10994 10993 10992 10992 10992 10991 10992 10991 10990
10972 10973 10973 10973 10975 10978 10980 10982 10984 10985 10986 10987 10988 10988 10989 10990 10991 10992 10993 10994 10994 10994 10995 10996 10997 10998 10999 10999 11000 11000 11000 11000 11000 10999 10999 10999 10999 10999 11000 11000 11001 11001 11001 11001 11000 11000 11001 11001 11001 11001 11002 11002 11002 11002 11001 11001 11001 11000 11000 10999 10998 10998 10998 10997 10996 10996 10995 10995 10994 10993 10993 10992 10992 10991 10990 10991 10991 10991 10990 10990 10989 10988 10987 10987 10987
10969 10971 10971 10972 10974 10976 10978 10980 10982 10982 10981 10981 10983 10983 10984 10986 10987 10988 10989 10990 10990 10991 10991 10992 10993 10995 10995 10996 10997 10996 10996 10995 10994 10994 10994 10995 10995 10996 10996 10996 10997 10997 10998 10998 10997 10997 10997 10997 10998 10998 10999 10999 10998 10998 10999 10999 10999 10999 10998 10997 10996 10995 10995 10994 10994 10993 10992 10992 10992 10991 10990 10988 10988 10988 10986 10985 10986 10986 10987 10987 10986 10985 10984 10984 10983
10965 10967 10969 10970 10972 10974 10976 10978 10979 10977 10975 10975 10978 10979 10980 10981 10983 10984 10985 10986 10986 10987 10987 10988 10988 10990 10991 10991 10990 10990 10989 10988 10988 10990 10991 10991 10992 10993 10993 10993 10993 10993 10994 10995 10994 10994 10994 10994 10994 10994 10995 10995 10994 10994 10995 10995 10996 10996 10995 10993 10992 10992 10991 10991 10991 10989 10988 10988 10989 10988 10986 10985 10984 10984 10983 10982 10980 10980 10982 10984 10983 10982 10981 10980 10979
10961 10963 10965 10966 10968 10970 10973 10974 10973 10970 10969 10971 10972 10974 10975 10976 10978 10979 10981 10981 10981 10981 10982 10983 10984 10985 10986 10985 10985 10984 10984 10984 10985 10987 10988 10989 10989 10989 10990 10990 10989 10990 10991 10991 10990 10990 10990 10991 10990 10990 10990 10990 10989 10988 10989 10990 10993 10993 10990 10988 10988 10989 10987 10987 10986 10985 10983 10983 10984 10985 10983 10981 10980 10979 10980 10979 10977 10973 10974 10978 10980 10978 10977 10976 10976
10956 10958 10960 10961 10963 10965 10966 10966 10965 10963 10964 10965 10967 10968 10970 10971 10972 10974 10975 10976 10975 10975 10977 10978 10978 10980 10981 10981 10981 10980 10980 10980 10981 10982 10984 10985 10985 10985 10985 10985 10985 10986 10987 10987 10986 10985 10986 10986 10986 10986 10986 10985 10984 10983 10983 10984 10987 10988 10985 10983 10984 10984 10982 10982 10982 10980 10978 10978 10979 10980 10979 10978 10976 10975 10974 10975 10975 10971 10968 10970 10973 10974 10973 10973 10972